TimeMST,TemperatureF,Dew PointF,Humidity,Sea Level PressureIn,VisibilityMPH,Wind Direction,Wind SpeedMPH,Gust SpeedMPH,PrecipitationIn,Events,Conditions,WindDirDegrees,DateUTC
12:58 AM,58.6,34.9,41,29.94,10.0,NNW,8.1,-,N/A,,Clear,330,2013-10-19 07:58:00
1:58 AM,58.3,32.7,38,29.95,10.0,NNE,3.5,-,N/A,,Clear,20,2013-10-19 08:58:00
2:58 AM,56.8,30.4,37,29.96,10.0,NNE,5.8,-,N/A,,Clear,20,2013-10-19 09:58:00
3:58 AM,54.9,30.0,39,29.96,10.0,NNW,9.2,-,N/A,,Clear,330,2013-10-19 10:58:00
4:58 AM,52.3,32.5,47,29.97,10.0,Calm,Calm,-,N/A,,Clear,0,2013-10-19 11:58:00
5:58 AM,53.6,29.1,39,29.98,10.0,NNE,5.8,-,N/A,,Clear,30,2013-10-19 12:58:00
6:58 AM,52.2,28.6,40,29.99,10.0,NNE,5.8,-,N/A,,Clear,20,2013-10-19 13:58:00
7:58 AM,58.5,32.0,37,30.01,10.0,NNW,9.2,-,N/A,,Clear,330,2013-10-19 14:58:00
8:58 AM,66.9,28.9,24,30.02,10.0,NNE,1.2,-,N/A,,Clear,20,2013-10-19 15:58:00
9:58 AM,71.4,26.2,19,30.01,10.0,SSE,3.5,-,N/A,,Clear,160,2013-10-19 16:58:00
10:58 AM,76.6,20.7,12,30.01,10.0,South,4.6,-,N/A,,Clear,190,2013-10-19 17:58:00
11:58 AM,79.0,22.6,12,29.99,10.0,Variable,1.2,-,N/A,,Clear,0,2013-10-19 18:58:00
12:58 PM,81.5,20.5,10,29.96,10.0,Variable,1.2,-,N/A,,Clear,0,2013-10-19 19:58:00
1:58 PM,84.2,19.4,9,29.93,10.0,Calm,Calm,-,N/A,,Clear,0,2013-10-19 20:58:00
2:58 PM,85.1,18.0,8,29.91,10.0,Calm,Calm,-,N/A,,Clear,0,2013-10-19 21:58:00
3:58 PM,86.2,18.9,8,29.89,10.0,SW,4.6,-,N/A,,Clear,220,2013-10-19 22:58:00
4:58 PM,85.8,21.2,9,29.87,10.0,SSW,6.9,-,N/A,,Clear,210,2013-10-19 23:58:00
5:58 PM,82.0,27.1,13,29.87,10.0,South,4.6,-,N/A,,Clear,170,2013-10-20 00:58:00
6:58 PM,75.6,32.0,20,29.88,10.0,West,5.8,-,N/A,,Clear,260,2013-10-20 01:58:00
7:58 PM,71.1,35.2,27,29.89,10.0,West,5.8,-,N/A,,Clear,280,2013-10-20 02:58:00
8:58 PM,68.0,34.0,28,29.89,10.0,NNW,3.5,-,N/A,,Clear,330,2013-10-20 03:58:00
9:58 PM,66.4,33.8,30,29.90,10.0,NE,4.6,-,N/A,,Clear,50,2013-10-20 04:58:00
10:58 PM,66.4,28.0,24,29.90,10.0,North,2.3,-,N/A,,Clear,10,2013-10-20 05:58:00
11:58 PM,64.0,27.9,26,29.90,10.0,Calm,Calm,-,N/A,,Clear,0,2013-10-20 06:58:00